Weather History for Lakeville, MN

Change the Weather History Date:

Tuesday, November 1, 2011

  Actual Average Record
Temperature  
Mean Temperature 44 °F -  
Max Temperature 50 °F 50 °F 72 °F (1948)
Min Temperature 37 °F 34 °F 12 °F (1951)
Degree Days  
Heating Degree Days 22    
Moisture  
Dew Point 32 °F    
Average Humidity 60    
Maximum Humidity 76    
Minimum Humidity 50    
Precipitation  
Precipitation 0.00 in - - ()
Sea Level Pressure  
Sea Level Pressure 29.90 in    
Wind  
Wind Speed 4 mph (SE)    
Max Wind Speed 10 mph    
Max Gust Speed 16 mph    
Visibility 10 miles    
Events      
Averages and records for this station are not official NWS values.
T = Trace of Precipitation, MM = Missing Value Source: NWS Daily Summary

Daily Weather History Graph

Daily Weather History Graph

Search for Another Location

Airport:

Trip Planner

Search our weather history database for the weather conditions in past years. The results will help you decide how hot, cold, wet, or windy it might be!

Date:

Astronomy

Nov. 01, 2011 Rise Set
Actual Time 7:50 AM CDT 6:02 PM CDT
Civil Twilight 7:19 AM CDT 6:32 PM CDT
Nautical Twilight 6:45 AM CDT 7:06 PM CDT
Astronomical Twilight 6:11 AM CDT 7:40 PM CDT
Moon 1:39 PM CDT (11/1) 11:43 PM CDT (11/1)
Length of Visible Light 11h 12m
Length of Day
10h 11m
Waxing Crescent, 40% of the Moon is Illuminated
Nov 1
Waxing Crescent
Nov 2
First Quarter
Nov 10
Full
Nov 18
Last Quarter
Nov 25
New

Hourly Weather History & Observations

Time (CDT) Temp. Windchill Dew Point Humidity Pressure Visibility Wind Dir Wind Speed Gust Speed Precip Events Conditions
12:12 AM 42.8 °F 41.1 °F 30.2 °F 61% 29.91 in 10.0 mi South 3.5 mph - N/A   Mostly Cloudy
12:32 AM 42.8 °F - 30.2 °F 61% 29.91 in 10.0 mi Calm Calm - N/A   Scattered Clouds
12:51 AM 42.8 °F 41.1 °F 30.2 °F 61% 29.90 in 10.0 mi South 3.5 mph - N/A   Scattered Clouds
1:12 AM 44.6 °F 42.2 °F 30.2 °F 57% 29.91 in 10.0 mi South 4.6 mph - N/A   Mostly Cloudy
1:32 AM 46.4 °F 42.9 °F 28.4 °F 50% 29.91 in 10.0 mi South 6.9 mph - N/A   Overcast
1:51 AM 46.4 °F 43.5 °F 28.4 °F 50% 29.91 in 10.0 mi South 5.8 mph - N/A   Overcast
2:12 AM 46.4 °F 41.5 °F 28.4 °F 50% 29.90 in 10.0 mi South 10.4 mph - N/A   Overcast
2:32 AM 46.4 °F 41.5 °F 28.4 °F 50% 29.89 in 10.0 mi South 10.4 mph 16.1 mph N/A   Overcast
3:12 AM 46.4 °F 41.5 °F 28.4 °F 50% 29.89 in 10.0 mi South 10.4 mph - N/A   Mostly Cloudy
3:32 AM 46.4 °F 42.9 °F 28.4 °F 50% 29.89 in 10.0 mi South 6.9 mph - N/A   Scattered Clouds
3:51 AM 46.4 °F 42.9 °F 28.4 °F 50% 29.88 in 10.0 mi South 6.9 mph - N/A   Mostly Cloudy
4:12 AM 46.4 °F 44.3 °F 30.2 °F 53% 29.88 in 10.0 mi SSE 4.6 mph - N/A   Overcast
4:32 AM 44.6 °F 43.1 °F 30.2 °F 57% 29.87 in 10.0 mi SSE 3.5 mph - N/A   Overcast
4:51 AM 44.6 °F 42.2 °F 30.2 °F 57% 29.87 in 10.0 mi SE 4.6 mph - N/A   Overcast
5:12 AM 44.6 °F 41.4 °F 30.2 °F 57% 29.87 in 10.0 mi East 5.8 mph - N/A   Mostly Cloudy
5:32 AM 42.8 °F 39.3 °F 30.2 °F 61% 29.87 in 10.0 mi ESE 5.8 mph - N/A   Mostly Cloudy
5:51 AM 39.2 °F 35.0 °F 28.4 °F 65% 29.87 in 10.0 mi ESE 5.8 mph - N/A   Mostly Cloudy
6:12 AM 37.4 °F 33.8 °F 28.4 °F 70% 29.88 in 10.0 mi East 4.6 mph - N/A   Scattered Clouds
6:31 AM 37.4 °F 34.9 °F 28.4 °F 70% 29.87 in 10.0 mi East 3.5 mph - N/A   Clear
6:52 AM 37.4 °F 33.8 °F 28.4 °F 70% 29.87 in 10.0 mi East 4.6 mph - N/A   Clear
7:12 AM 37.4 °F 32.8 °F 30.2 °F 75% 29.86 in 7.0 mi ESE 5.8 mph - N/A   Clear
7:32 AM 37.4 °F 33.8 °F 30.2 °F 75% 29.86 in 7.0 mi SE 4.6 mph - N/A   Clear
8:12 AM 39.2 °F 37.0 °F 30.2 °F 70% 29.88 in 7.0 mi SE 3.5 mph - N/A   Clear
8:32 AM 41.0 °F 36.4 °F 30.2 °F 65% 29.87 in 10.0 mi SE 6.9 mph - N/A   Clear
8:52 AM 41.0 °F 39.0 °F 30.2 °F 65% 29.88 in 10.0 mi South 3.5 mph - N/A   Clear
9:12 AM 42.8 °F 41.1 °F 30.2 °F 61% 29.88 in 10.0 mi SSE 3.5 mph - N/A   Clear
9:31 AM 42.8 °F 41.1 °F 30.2 °F 61% 29.87 in 10.0 mi SE 3.5 mph - N/A   Clear
9:52 AM 42.8 °F - 30.2 °F 61% 29.88 in 10.0 mi Calm Calm - N/A   Clear
10:12 AM 42.8 °F - 30.2 °F 61% 29.88 in 10.0 mi Calm Calm - N/A   Clear
10:32 AM 44.6 °F 43.1 °F 32.0 °F 61% 29.88 in 10.0 mi SSE 3.5 mph - N/A   Clear
10:52 AM 44.6 °F - 32.0 °F 61% 29.87 in 10.0 mi Calm Calm - N/A   Clear
11:12 AM 44.6 °F 42.2 °F 32.0 °F 61% 29.88 in 10.0 mi South 4.6 mph - N/A   Clear
11:31 AM 46.4 °F 45.2 °F 32.0 °F 57% 29.87 in 10.0 mi ENE 3.5 mph - N/A   Clear
11:52 AM 46.4 °F 45.2 °F 33.8 °F 62% 29.89 in 10.0 mi WSW 3.5 mph - N/A   Clear
12:12 PM 46.4 °F - 33.8 °F 62% 29.87 in 10.0 mi Calm Calm - N/A   Clear
12:32 PM 46.4 °F - 33.8 °F 62% 29.88 in 10.0 mi Calm Calm - N/A   Clear
12:52 PM 48.2 °F - 33.8 °F 58% 29.88 in 10.0 mi Calm Calm - N/A   Clear
1:12 PM 48.2 °F - 33.8 °F 58% 29.88 in 10.0 mi Calm Calm - N/A   Clear
1:32 PM 48.2 °F - 33.8 °F 58% 29.88 in 10.0 mi NW 4.6 mph - N/A   Clear
1:52 PM 48.2 °F - 33.8 °F 58% 29.88 in 10.0 mi NW 5.8 mph - N/A   Clear
2:12 PM 50.0 °F - 32.0 °F 50% 29.88 in 10.0 mi North 3.5 mph - N/A   Clear
2:32 PM 50.0 °F - 32.0 °F 50% 29.89 in 10.0 mi North 4.6 mph - N/A   Clear
2:52 PM 50.0 °F - 33.8 °F 54% 29.89 in 10.0 mi NNE 3.5 mph - N/A   Unknown
3:12 PM 50.0 °F - 33.8 °F 54% 29.89 in 10.0 mi NE 4.6 mph - N/A   Unknown
3:32 PM 50.0 °F - 33.8 °F 54% 29.90 in 10.0 mi Calm Calm - N/A   Unknown
3:52 PM 50.0 °F - 33.8 °F 54% 29.90 in 10.0 mi North 5.8 mph - N/A   Clear
4:12 PM 50.0 °F - 33.8 °F 54% 29.91 in 10.0 mi NE 4.6 mph - N/A   Unknown
4:32 PM 50.0 °F - 33.8 °F 54% 29.91 in 10.0 mi NE 4.6 mph - N/A   Clear
4:52 PM 50.0 °F - 33.8 °F 54% 29.91 in 10.0 mi East 4.6 mph - N/A   Scattered Clouds
5:12 PM 48.2 °F - 33.8 °F 58% 29.92 in 10.0 mi Calm Calm - N/A   Scattered Clouds
5:32 PM 48.2 °F - 33.8 °F 58% 29.93 in 7.0 mi Calm Calm - N/A   Scattered Clouds
5:52 PM 48.2 °F - 33.8 °F 58% 29.95 in 10.0 mi Calm Calm - N/A   Unknown
6:12 PM 46.4 °F - 35.6 °F 66% 29.95 in 4.0 mi Calm Calm - N/A   Haze
6:31 PM 46.4 °F - 35.6 °F 66% 29.95 in 7.0 mi Calm Calm - N/A   Unknown
7:11 PM 44.6 °F - 37.4 °F 76% 29.97 in 10.0 mi Calm Calm - N/A   Unknown
7:32 PM 44.6 °F 43.1 °F 35.6 °F 71% 29.97 in 7.0 mi NW 3.5 mph - N/A   Scattered Clouds
7:51 PM 44.6 °F 43.1 °F 35.6 °F 71% 29.97 in 10.0 mi NW 3.5 mph - N/A   Unknown
8:12 PM 46.4 °F 42.9 °F 35.6 °F 66% 29.97 in 10.0 mi NNW 6.9 mph - N/A   Unknown
8:32 PM 46.4 °F 42.4 °F 35.6 °F 66% 29.97 in 10.0 mi NW 8.1 mph - N/A   Scattered Clouds
8:51 PM 46.4 °F 43.5 °F 35.6 °F 66% 29.98 in 10.0 mi NW 5.8 mph - N/A   Mostly Cloudy
9:32 PM 46.4 °F 42.4 °F 35.6 °F 66% 29.99 in 10.0 mi NNW 8.1 mph - N/A   Unknown
9:51 PM 46.4 °F 42.4 °F 37.4 °F 71% 30.00 in 10.0 mi North 8.1 mph - N/A   Overcast
10:32 PM 46.4 °F 41.9 °F 37.4 °F 71% 30.01 in 10.0 mi North 9.2 mph - N/A   Overcast
11:12 PM 46.4 °F 41.1 °F 35.6 °F 66% 30.01 in 10.0 mi North 11.5 mph 17.3 mph N/A   Overcast
11:31 PM 46.4 °F 40.4 °F 35.6 °F 66% 30.01 in 10.0 mi North 13.8 mph 18.4 mph N/A   Overcast
11:52 PM 46.4 °F 41.9 °F 35.6 °F 66% 30.02 in 10.0 mi North 9.2 mph - N/A   Mostly Cloudy